sat.trackr.live / text

‹ back to catalog

STARLINK-32718

NORAD 62496 · 2025-003K

PAYLOAD ACTIVE UNKNOWN

§ Identity

Operator
Country
US
Launch date
2025-01-06
Launch site
AFETR
Launch vehicle
Mass (kg)
RCS (m²)

Purposes: comms

External: N2YO · Heavens-Above · Gunter

§ Orbital elements

Epoch: 2026-05-25T04:20:21.233184Z

Period
94.27 min
Inclination
43.0003°
Eccentricity
0.0001335
Mean motion
15.27602031 rev/d
Perigee alt
482.1 km
Apogee alt
483.9 km
Semi-major
6,861.1 km
B*
7.1373e-4
RAAN
216.6689°
Arg perigee
256.4301°
Mean anomaly
103.6402°
Rev number
7,825

§ Raw data

STARLINK-327181 62496U 25003K   26145.18080131  .00019443  00000+0  71373-3 0  99912 62496  43.0003 216.6689 0001335 256.4301 103.6402 15.27602031 78255

JSON: /api/v1/satellites/62496 · /tle

For live sub-satellite position, see the globe view (requires WebGL).

§ Visibility from observer

Set your observer location to see the next 7 days of passes ≥ 10°. The values pass through the URL so the page stays shareable.

No JS? Fill the form by hand. The geolocation button needs JavaScript.